371P/LINEAR-Skiff (2018)

Japanese version
Home page
Updated on May 20, 2019

---------------------------------------------------------------------

* Profile

Designation 371P/2018 R1
Recovery Date September 7, 2018
Magnitude 19.8 mag
Recoverer E. Schwab (Egelsbach, Germany), D. Abreu (European Space Agency's Optical Ground Station, Tenerife)

* Pictures

* Orbital Elements

Epoch 2018 Oct. 9.0 TT = JDT 2458400.5
T 2018 Oct. 4.58968 TT                                  MPCW
q   2.1910624            (2000.0)            P               Q
n   0.11528542     Peri.  308.47950     +0.92916907     -0.24631395
a   4.1810607      Node    67.33522     +0.35568747     +0.79877864
e   0.4759554      Incl.   17.37963     -0.10065420     +0.54889172
P   8.55
From 150 observations 2001 Aug. 19-2018 Dec. 28, mean residual 0".6.

* Magnitudes Graph

        m1 = 12.0 + 5 log d + 20.0 log r

---------------------------------------------------------------------

The orbital elements are published on M.P.E.C. 2019-J142.
The magnitudes graphs are made with Comet for Windows.

---------------------------------------------------------------------

Copyright(C) Seiichi Yoshida (comet@aerith.net). All rights reserved.